Regional Weather Roundup
Issued by NWS

Home | Current Version | Previous Version | Graphics & Text | Print | Product List | Glossary On
Versions: 1 2 3 4 5 6 7 8 9 10 11 12 13 14 15 16 17 18 19 20 21 22 23 24 25 26 27 28 29 30 31 32 33 34 35 36 37 38 39 40 41 42 43 44 45 46 47 48 49 50
000
ASUS43 KOAX 190010
RWRNE

WEATHER ROUNDUP FOR NEBRASKA
NATIONAL WEATHER SERVICE OMAHA NE
700 PM CDT SAT APR 18 2015

NOTES: SATELLITE DATA IS BEING USED TO AUGMENT CLOUD COVER ABOVE
       12000 FEET.
       "FAIR" INDICATES FEW OR NO CLOUDS BELOW 12,000 FEET WITH NO
       SIGNIFICANT WEATHER AND/OR OBSTRUCTIONS TO VISIBILITY.

  * THESE STATIONS DO NOT REPORT WEATHER SUCH AS RAIN...SNOW OR FOG.

NEZ001>004-019>022-054>056-190100-
NEBRASKA PANHANDLE

CITY           SKY/WX    TMP DP  RH WIND       PRES   REMARKS
SCOTTSBLUFF    CLOUDY    59  32  36 VRB3      29.87R
6HR MIN TEMP:  52; 6HR MAX TEMP:  61;

ALLIANCE       CLOUDY    55  46  71 N15       29.86R
6HR MIN TEMP:  51; 6HR MAX TEMP:  61;

CHADRON        PTSUNNY   52  45  77 NW7       29.91S
6HR MIN TEMP:  48; 6HR MAX TEMP:  52;

KIMBALL        CLOUDY    46  40  80 W8        29.90R
SIDNEY         LGT RAIN  46  39  76 N12       29.90R
6HR MIN TEMP:  46; 6HR MAX TEMP:  56; 6HR PCP:  0.04;

$$

NEZ057>060-069>072-079>082-190100-
SOUTHWEST NEBRASKA

CITY           SKY/WX    TMP DP  RH WIND       PRES   REMARKS
NORTH PLATTE   PTSUNNY   63  47  55 E8        29.76R
6HR MIN TEMP:  60; 6HR MAX TEMP:  69; 6HR PCP:  0.03;

IMPERIAL       PTSUNNY   56  43  61 W12       29.79F
6HR MIN TEMP:  54; 6HR MAX TEMP:  65; 6HR PCP:  0.03;

LEXINGTON      CLOUDY    66  53  63 E5        29.75S
MCCOOK         TSTM      62  44  51 SW20      29.75R
6HR MIN TEMP:  64; 6HR MAX TEMP:  72;

OGALLALA       CLOUDY    55  44  65 SW22G28   29.84R
$$

NEZ005>010-023>029-035>040-094-190100-
NORTH CENTRAL NEBRASKA

CITY           SKY/WX    TMP DP  RH WIND       PRES   REMARKS
VALENTINE      PTSUNNY   63  48  58 N16       29.80F
6HR MIN TEMP:  55; 6HR MAX TEMP:  67;

AINSWORTH      MOSUNNY   62  51  68 NE8       29.81S
BROKEN BOW     PTSUNNY   64  55  72 E12       29.76S
6HR MIN TEMP:  63; 6HR MAX TEMP:  72; 6HR PCP: TRACE;

O`NEILL        CLOUDY    62  57  83 NE7       29.80F
ORD            PTSUNNY   66  47  50 E3        29.76S
6HR MIN TEMP:  62; 6HR MAX TEMP:  69;

THEDFORD       MOSUNNY   66  43  43 CALM      29.79S
$$

NEZ041-046>049-061>064-073>077-083>087-190100-
SOUTH CENTRAL NEBRASKA

CITY           SKY/WX    TMP DP  RH WIND       PRES   REMARKS
GRAND ISLAND   PTSUNNY   66  55  67 E9        29.78S
6HR MIN TEMP:  62; 6HR MAX TEMP:  71;

AURORA         PTSUNNY   66  60  81 E10       29.79R
HASTINGS       CLOUDY    66  56  70 SE14      29.76R
6HR MIN TEMP:  62; 6HR MAX TEMP:  71;

HEBRON         DRIZZLE   59  50  70 SW16G23   29.80R
HOLDREGE       CLOUDY    63  49  59 E8        29.76R
KEARNEY *      CLOUDY    55  48  76 E15       29.77R
YORK           PTSUNNY   66  59  77 SE14      29.79R
$$

NEZ011>018-030>034-042>045-190100-
NORTHEAST NEBRASKA

CITY           SKY/WX    TMP DP  RH WIND       PRES   REMARKS
ALBION         CLOUDY    65  56  73 SE14      29.78F
BLAIR          CLOUDY    61  55  81 E6        29.82F
COLUMBUS *     CLOUDY    64  54  68 SE7       29.81S
FREMONT        CLOUDY    64  56  75 E8        29.81S
TEKAMAH        CLOUDY    63  58  83 SE8       29.81S
6HR MIN TEMP:  61; 6HR MAX TEMP:  64; 6HR PCP:  0.02;

WAYNE          CLOUDY    62  58  87 E7        29.81F
$$

NEZ050>053-065>068-078-088>093-190100-
SOUTHEAST NEBRASKA

CITY           SKY/WX    TMP DP  RH WIND       PRES   REMARKS
LINCOLN        CLOUDY    64  55  72 SE13      29.81R
6HR MIN TEMP:  63; 6HR MAX TEMP:  67; 6HR PCP: TRACE;

OMAHA EPPLEY   CLOUDY    62  57  83 SE5       29.82R
6HR MIN TEMP:  61; 6HR MAX TEMP:  62; 6HR PCP:  0.25;

BEATRICE       CLOUDY    64  56  74 SE12      29.81R
FALLS CITY     CLOUDY    62  58  86 SE9       29.83R
6HR MIN TEMP:  62; 6HR MAX TEMP:  63; 6HR PCP:  0.12;

NEBRASKA CITY  CLOUDY    61  59  94 SE10      29.83S
PLATTSMOUTH    CLOUDY    61  57  87 E13       29.83S
$$

NEZ044-045-051>053-067-190100-
OMAHA AREA

CITY           SKY/WX    TMP DP  RH WIND       PRES   REMARKS
OMAHA EPPLEY   CLOUDY    62  57  83 SE5       29.82R
6HR MIN TEMP:  61; 6HR MAX TEMP:  62; 6HR PCP:  0.25;

BLAIR          CLOUDY    61  55  81 E6        29.82F
FREMONT        CLOUDY    64  56  75 E8        29.81S
MILLARD        CLOUDY    62  56  79 E6        29.82S
OFFUTT AFB     CLOUDY    61  57  88 E9        29.82S
PLATTSMOUTH    CLOUDY    61  57  87 E13       29.83S
WAHOO          CLOUDY    63  56  79 SE10      29.81R
$$



USA.gov is the U.S. government's official web portal to all federal, state and local government web resources and services.